Flag for India Weather past 2 weeks in Yavatmal, Maharashtra, India

Now
86 °F

Passing clouds.


Feels Like: 92 °F
Forecast: 78 / 93 °F
Wind: 16 mph from Northwest

Location: Nagpur Sonegaon

Current Time: Jul 5, 2015 at 10:57:03 AM

Latest Report: Jul 5, 2015 at 9:10 AM


Visibility: 4 mi

Pressure: 29.71 "Hg

Humidity: 62%

Dew point: 72 °F

Location of YavatmalLocation

Historic Weather in Yavatmal — Graph

°F

Yavatmal temperature yesterday

Maximum temperature yesterday: 99 °F (at 4:40 PM)
Minimum temperature yesterday: 79 °F (at 3:10 AM)
Average temperature yesterday: 88 °F

Past Weeks' High & Low Weather Summary

 TemperatureHumidityPressure
High108 °F (Jun 20, 1:10 PM)100% (Jun 20, 10:40 PM)29.83 "Hg (Jun 20, 10:40 PM)
Low75 °F (Jul 1, 4:10 AM)41% (Jul 4, 6:10 PM)29.39 "Hg (Jun 20, 4:40 PM)
Average85 °F73%29.65 "Hg
* Reported Jun 20 8:40 AM — Jul 5 9:10 AM, Yavatmal, Weather by CustomWeather, © 2015

Note: Actual official high and low records may vary slightly from our data, if they occured in-between our weather recording intervals... More about our weather records

Advertising

Yavatmal weather history for previous 24 hours

 ConditionsComfort  
Time TempWeatherWind HumidityBarometerVisibility
9:10 AM
Sun, Jul 5
86 °FPassing clouds.16 mph62%29.71 "Hg4 mi
8:40 AM88 °FPassing clouds.13 mph59%29.71 "Hg4 mi
8:10 AM86 °FClear.12 mph62%29.71 "Hg4 mi
7:40 AM88 °FClear.14 mph59%29.71 "Hg4 mi
7:10 AM82 °FClear.9 mph70%29.71 "Hg4 mi
6:40 AM82 °FHaze.7 mph66%29.71 "Hg3 mi
5:40 AM81 °FHaze.6 mph70%29.68 "Hg3 mi
3:40 AM81 °FHaze.6 mph70%29.65 "Hg3 mi
2:10 AM84 °FHaze.3 mph58%29.68 "Hg3 mi
1:10 AM86 °FHaze.6 mph55%29.68 "Hg3 mi
12:10 AM86 °FHaze.6 mph59%29.71 "Hg3 mi
11:10 PM
Sat, Jul 4
84 °FHaze.3 mph62%29.71 "Hg3 mi
10:10 PM86 °FHaze.5 mph62%29.68 "Hg3 mi
9:10 PM88 °FHaze.5 mph59%29.68 "Hg3 mi
8:40 PM88 °FHaze.5 mph55%29.68 "Hg3 mi
8:10 PM91 °FHaze.6 mph49%29.68 "Hg3 mi
7:40 PM91 °FHaze.3 mph52%29.65 "Hg3 mi
7:10 PM91 °FHaze.3 mph49%29.65 "Hg3 mi
6:40 PM93 °FHaze.5 mph47%29.65 "Hg3 mi
6:10 PM95 °FHaze.6 mph41%29.65 "Hg3 mi
5:40 PM97 °FPassing clouds.9 mph42%29.65 "Hg4 mi
4:40 PM99 °FScattered clouds.10 mph42%29.65 "Hg4 mi
3:40 PM97 °FScattered clouds.10 mph47%29.65 "Hg4 mi
3:10 PM97 °FScattered clouds.10 mph47%29.68 "Hg4 mi
2:40 PM97 °FScattered clouds.12 mph47%29.68 "Hg4 mi
1:40 PM95 °FScattered clouds.13 mph53%29.71 "Hg4 mi
1:10 PM95 °FScattered clouds.17 mph50%29.71 "Hg4 mi
12:40 PM93 °FScattered clouds.14 mph56%29.74 "Hg4 mi
12:10 PM93 °FScattered clouds.13 mph56%29.74 "Hg4 mi
11:40 AM91 °FScattered clouds.13 mph56%29.74 "Hg4 mi
11:10 AM91 °FScattered clouds.13 mph59%29.77 "Hg4 mi
10:40 AM90 °FScattered clouds.13 mph59%29.77 "Hg4 mi
10:10 AM91 °FScattered clouds.13 mph56%29.77 "Hg4 mi
Weather by CustomWeather, © 2015

See weather overviewHow to use our weather pages